period_start,C,m1,H,J0,J1,J2,J3,J4,J5,JA,JB,JC,JD,JJ,JK,JN,#
2016-04-25 00:01:34,0.07,2.67,0.00,17.22,22.27,26.03,15.08,49.61,1030.80,2055.99,2597.16,2493.90,2805.38,599.89,616.26,28.77,0000 0000 0000 0000 000000
2016-04-25 00:06:35,0.05,2.67,0.00,17.23,22.27,26.01,15.02,49.65,1030.80,2055.99,2596.31,2493.11,2804.77,599.49,615.85,28.82,0000 0000 0000 0000 000000
2016-04-25 00:11:36,0.07,2.67,0.00,17.26,22.27,26.07,15.12,49.68,1030.79,2055.99,2595.29,2492.51,2803.83,600.13,616.56,28.87,0000 0000 0000 0000 000000
2016-04-25 00:16:37,0.05,2.68,0.00,17.28,22.27,26.06,15.13,49.71,1030.79,2055.99,2594.18,2491.95,2803.03,599.87,616.03,28.92,0000 0000 0000 0000 000000
2016-04-25 00:21:39,0.07,2.68,0.00,17.28,22.29,26.01,15.13,49.70,1030.78,2055.99,2593.31,2491.13,2802.30,599.99,616.23,28.97,0000 0000 0000 0000 000000
2016-04-25 00:26:40,0.07,2.68,0.00,17.30,22.29,26.09,15.14,49.65,1030.79,2055.99,2592.15,2490.43,2801.47,600.11,616.40,29.02,0000 0000 0000 0000 000000
2016-04-25 00:31:41,0.07,2.69,0.00,17.31,22.30,26.09,15.15,49.59,1030.78,2055.98,2590.94,2489.72,2800.49,600.01,616.23,29.07,0000 0000 0000 0000 000000
2016-04-25 00:36:42,0.05,2.69,0.00,17.32,22.31,26.07,15.10,49.49,1030.78,2055.98,2589.93,2488.97,2799.72,600.28,616.50,29.13,0000 0000 0000 0000 000000
2016-04-25 00:41:44,0.09,2.69,0.00,17.34,22.32,26.07,15.12,49.63,1030.78,2055.98,2588.73,2488.10,2798.74,600.15,616.26,29.17,0000 0000 0000 0000 000000
2016-04-25 00:46:45,0.07,2.70,0.00,17.35,22.32,26.07,15.10,49.64,1030.78,2055.97,2587.67,2487.43,2797.86,599.71,615.77,29.23,0000 0000 0000 0000 000000
2016-04-25 00:51:46,0.05,2.70,0.00,17.38,22.34,26.07,15.11,49.77,1030.78,2055.97,2586.82,2486.72,2797.10,600.18,616.29,29.28,0000 0000 0000 0000 000000
2016-04-25 00:56:48,0.07,2.70,0.00,17.38,22.34,26.11,15.19,49.71,1030.78,2055.95,2585.61,2485.92,2796.17,600.42,616.46,29.33,0000 0000 0000 0000 000000
2016-04-25 01:01:49,0.07,2.71,0.00,17.39,22.34,26.08,15.07,49.73,1030.77,2055.98,2584.60,2485.11,2795.29,599.82,615.84,29.38,0000 0000 0000 0000 000000
2016-04-25 01:06:50,0.07,2.71,0.00,17.41,22.36,26.17,15.10,49.75,1030.70,2055.92,2583.42,2484.33,2794.34,599.87,615.47,29.43,0000 0000 0000 0000 000000
2016-04-25 01:11:52,0.05,2.71,0.00,17.43,22.37,26.14,15.15,49.73,1030.52,2055.77,2582.46,2483.67,2793.51,600.28,616.02,29.48,0000 0000 0000 0000 000000
2016-04-25 01:16:53,0.10,2.72,0.00,17.44,22.37,26.18,15.15,49.85,1030.28,2055.79,2580.90,2482.77,2792.34,600.22,615.83,29.53,0000 0000 0000 0000 000000
2016-04-25 01:21:55,0.07,2.72,0.00,17.45,22.38,26.17,15.05,49.85,1029.89,2055.77,2579.60,2481.94,2791.27,599.69,615.06,29.58,0000 0000 0000 0000 000000
2016-04-25 01:26:56,0.08,2.73,0.00,17.44,22.39,26.19,15.11,49.76,1029.80,2055.75,2578.49,2481.07,2790.33,599.52,614.82,29.63,0000 0000 0000 0000 000000
2016-04-25 01:31:57,0.05,2.73,0.00,17.41,22.39,26.17,15.13,49.66,1029.80,2055.61,2577.34,2480.26,2789.42,599.89,615.26,29.68,0000 0000 0000 0000 000000
2016-04-25 01:36:59,0.09,2.73,0.00,17.43,22.39,26.22,15.11,49.64,1029.80,2055.64,2576.04,2479.58,2788.48,600.17,615.45,29.73,0000 0000 0000 0000 000000
2016-04-25 01:42:00,0.05,2.74,0.00,17.42,22.40,26.22,15.09,49.64,1029.80,2055.63,2574.97,2478.84,2787.51,600.05,615.48,29.78,0000 0000 0000 0000 000000
2016-04-25 01:47:01,0.06,2.74,0.00,17.44,22.41,26.23,15.13,49.65,1029.78,2055.50,2574.07,2478.02,2786.78,600.39,615.53,29.83,0000 0000 0000 0000 000000
2016-04-25 01:52:03,0.06,2.74,0.00,17.45,22.42,26.24,15.06,49.67,1029.77,2055.34,2572.96,2477.22,2785.86,599.82,615.10,29.88,0000 0000 0000 0000 000000
2016-04-25 01:57:04,0.07,2.75,0.00,17.45,22.42,26.24,15.10,49.60,1029.69,2055.47,2571.94,2476.52,2785.01,599.81,615.06,29.93,0000 0000 0000 0000 000000
2016-04-25 02:02:05,0.04,2.75,0.00,17.44,22.42,26.22,15.11,49.63,1029.66,2055.29,2570.89,2475.82,2784.13,600.23,615.44,29.98,0000 0000 0000 0000 000000
2016-04-25 02:07:06,0.09,2.75,0.00,17.44,22.43,26.29,15.07,49.42,1029.39,2055.36,2569.58,2474.96,2783.08,599.75,614.90,30.03,0000 0000 0000 0000 000000
2016-04-25 02:12:07,0.09,2.76,0.00,17.47,22.44,26.28,15.06,49.60,1029.31,2055.36,2568.06,2474.05,2781.90,599.75,614.71,30.08,0000 0000 0000 0000 000000
2016-04-25 02:17:08,0.10,2.76,0.00,17.48,22.44,26.28,15.08,49.75,1029.31,2055.50,2566.84,2473.18,2780.96,600.00,614.92,30.13,0000 0000 0000 0000 000000
2016-04-25 02:22:10,0.05,2.77,0.00,17.48,22.45,26.27,15.07,49.77,1029.10,2055.32,2565.68,2472.41,2779.99,600.23,615.03,30.18,0000 0000 0000 0000 000000
2016-04-25 02:27:10,0.09,2.77,0.00,17.48,22.47,26.28,15.13,49.89,1028.88,2055.53,2564.52,2471.71,2779.07,600.08,614.72,30.23,0000 0000 0000 0000 000000
2016-04-25 02:32:11,0.05,2.77,0.00,17.50,22.47,26.28,15.11,50.08,1029.03,2055.24,2563.51,2470.75,2778.12,600.24,614.92,30.28,0000 0000 0000 0000 000000
2016-04-25 02:37:12,0.06,2.78,0.00,17.51,22.47,26.36,15.15,50.22,1029.11,2055.12,2562.27,2469.81,2777.05,600.24,615.01,30.33,0000 0000 0000 0000 000000
2016-04-25 02:42:14,0.11,2.78,0.00,17.51,22.49,26.32,15.06,49.98,1029.09,2055.10,2560.84,2468.81,2775.84,599.84,614.63,30.38,0000 0000 0000 0000 000000
2016-04-25 02:47:15,0.07,2.79,0.00,17.51,22.49,26.32,15.09,49.86,1029.06,2055.06,2559.39,2467.91,2774.69,599.96,614.65,30.43,0000 0000 0000 0000 000000
2016-04-25 02:52:16,0.08,2.79,0.00,17.53,22.49,26.32,15.15,49.79,1029.08,2055.08,2558.46,2467.09,2773.71,599.85,614.51,30.48,0000 0000 0000 0000 000000
2016-04-25 02:57:18,0.07,2.79,0.00,17.51,22.51,26.39,15.09,49.77,1029.15,2055.06,2557.46,2466.19,2772.83,599.95,614.74,30.53,0000 0000 0000 0000 000000
2016-04-25 03:02:19,0.07,2.80,0.00,17.52,22.52,26.31,15.12,49.83,1029.08,2055.05,2556.24,2465.38,2771.92,600.08,614.84,30.58,0000 0000 0000 0000 000000
2016-04-25 03:07:21,0.07,2.80,0.00,17.53,22.52,26.35,15.08,49.70,1028.98,2055.01,2555.18,2464.62,2770.90,599.99,614.53,30.63,0000 0000 0000 0000 000000
2016-04-25 03:12:22,0.08,2.81,0.00,17.52,22.54,26.37,14.99,49.69,1028.92,2055.00,2553.86,2463.74,2769.81,599.92,614.62,30.68,0000 0000 0000 0000 000000
2016-04-25 03:17:23,0.08,2.81,0.00,17.54,22.54,26.33,15.01,49.71,1028.95,2055.00,2552.47,2462.92,2768.86,599.69,614.33,30.73,0000 0000 0000 0000 000000
2016-04-25 03:22:25,0.08,2.81,0.00,17.54,22.55,26.33,15.05,49.58,1028.90,2055.00,2551.39,2462.05,2767.86,599.72,614.20,30.78,0000 0000 0000 0000 000000
2016-04-25 03:27:26,0.10,2.82,0.00,17.55,22.57,26.34,15.02,49.62,1028.83,2055.00,2549.84,2461.10,2766.59,599.93,614.36,30.83,0000 0000 0000 0000 000000
2016-04-25 03:32:28,0.09,2.83,0.00,17.55,22.58,26.36,15.13,49.77,1028.82,2055.00,2548.41,2460.07,2765.48,600.16,614.67,30.88,0000 0000 0000 0000 000000
2016-04-25 03:37:29,0.10,2.83,0.00,17.56,22.59,26.36,15.06,49.56,1028.81,2055.00,2546.87,2459.11,2764.29,599.78,614.35,30.93,0000 0000 0000 0000 000000
2016-04-25 03:42:30,0.09,2.84,0.00,17.58,22.60,26.35,15.15,49.73,1028.73,2055.00,2545.52,2458.17,2763.10,599.91,614.19,30.98,0000 0000 0000 0000 000000
2016-04-25 03:47:31,0.10,2.84,0.00,17.61,22.61,26.38,15.18,49.78,1028.44,2055.00,2543.96,2457.16,2761.81,600.27,614.46,31.03,0000 0000 0000 0000 000000
2016-04-25 03:52:33,0.08,2.84,0.00,17.66,22.62,26.38,15.02,49.75,1028.60,2055.00,2542.80,2456.20,2760.77,599.93,614.05,31.08,0000 0000 0000 0000 000000
2016-04-25 03:57:34,0.10,2.85,0.00,17.67,22.63,26.37,15.13,49.86,1028.69,2054.99,2541.35,2455.16,2759.54,600.06,614.12,31.13,0000 0000 0000 0000 000000
2016-04-25 04:02:35,0.09,2.85,0.00,17.67,22.64,26.39,15.03,50.02,1028.62,2054.99,2539.94,2454.16,2758.33,599.92,614.12,31.18,0000 0000 0000 0000 000000
2016-04-25 04:07:36,0.10,2.86,0.00,17.70,22.66,26.38,15.08,50.19,1028.71,2054.98,2538.43,2453.23,2757.16,600.27,614.37,31.23,0000 0000 0000 0000 000000
2016-04-25 04:12:38,0.10,2.86,0.00,17.72,22.67,26.41,14.99,49.87,1028.43,2054.97,2536.72,2452.10,2755.73,599.72,613.63,31.28,0000 0000 0000 0000 000000
2016-04-25 04:17:39,0.11,2.87,0.00,17.64,22.68,26.40,15.09,49.93,1028.35,2054.98,2535.02,2450.99,2754.38,600.07,614.09,31.33,0000 0000 0000 0000 000000
2016-04-25 04:22:40,0.10,2.88,0.00,17.66,22.69,26.41,15.12,49.62,1028.48,2054.97,2533.51,2449.94,2753.03,600.06,613.92,31.38,0000 0000 0000 0000 000000
2016-04-25 04:27:41,0.11,2.88,0.00,17.73,22.70,26.47,15.08,49.74,1028.42,2054.98,2531.92,2448.81,2751.74,600.12,613.95,31.43,0000 0000 0000 0000 000000
2016-04-25 04:32:42,0.10,2.89,0.00,17.81,22.72,26.50,15.02,49.72,1028.34,2054.98,2530.31,2447.75,2750.53,599.86,613.51,31.48,0000 0000 0000 0000 000000
2016-04-25 04:37:44,0.09,2.89,0.00,17.88,22.73,26.50,15.06,49.74,1028.25,2054.97,2528.92,2446.72,2749.35,600.30,613.76,31.53,0000 0000 0000 0000 000000
2016-04-25 04:42:45,0.10,2.90,0.00,17.96,22.74,26.49,14.98,49.91,1028.27,2054.97,2527.67,2445.69,2748.13,599.63,613.13,31.58,0000 0000 0000 0000 000000
2016-04-25 04:47:46,0.10,2.90,0.00,18.06,22.76,26.52,15.04,49.76,1028.25,2054.95,2526.13,2444.62,2746.80,599.83,612.84,31.63,0000 0000 0000 0000 000000
2016-04-25 04:52:47,0.10,2.91,0.00,18.13,22.78,26.64,15.01,49.75,1028.30,2054.96,2524.67,2443.61,2745.49,599.72,612.70,31.68,0000 0000 0000 0000 000000
2016-04-25 04:57:49,0.08,2.91,0.00,18.19,22.80,26.64,15.07,49.55,1028.33,2054.87,2523.26,2442.49,2744.27,600.25,613.21,31.73,0000 0000 0000 0000 000000
2016-04-25 05:02:50,0.08,2.92,0.00,18.25,22.83,26.66,15.03,49.42,1028.33,2054.64,2521.81,2441.50,2743.02,600.02,612.81,31.78,0000 0000 0000 0000 000000
2016-04-25 05:07:52,0.09,2.92,0.00,18.27,22.85,26.78,15.07,49.41,1028.21,2054.53,2520.39,2440.40,2741.69,600.10,612.50,31.83,0000 0000 0000 0000 000000
2016-04-25 05:12:53,0.06,2.92,0.00,18.28,22.88,26.81,15.03,49.49,1027.96,2054.11,2518.85,2439.17,2740.29,599.75,612.21,31.88,0000 0000 0000 0000 000000
2016-04-25 05:17:55,0.11,2.93,0.00,18.27,22.90,26.88,15.03,49.51,1027.80,2054.03,2517.36,2437.94,2738.82,599.93,612.29,31.93,0000 0000 0000 0000 000000
2016-04-25 05:22:56,0.12,2.93,0.00,18.26,22.93,26.95,15.05,49.54,1027.76,2054.01,2515.73,2436.74,2737.38,600.12,612.50,31.98,0000 0000 0000 0000 000000
2016-04-25 05:27:57,0.13,2.94,0.00,18.25,22.96,26.99,15.03,49.56,1027.65,2054.00,2513.88,2435.41,2735.73,599.82,612.16,32.03,0000 0000 0000 0000 000000
2016-04-25 05:32:59,0.14,2.95,0.00,18.21,22.98,26.99,15.03,49.92,1027.29,2054.00,2511.95,2433.91,2733.85,600.21,612.34,32.08,0000 0000 0000 0000 000000
2016-04-25 05:38:00,0.19,2.96,0.00,18.21,23.01,27.00,15.05,50.54,1026.52,2054.00,2509.43,2432.09,2731.49,599.75,611.57,32.13,0000 0000 0000 0000 000000
2016-04-25 05:43:01,0.30,2.97,0.00,18.20,23.04,27.01,14.97,50.72,1025.91,2054.00,2506.35,2429.26,2728.10,599.90,611.24,32.19,0000 0000 0000 0000 000000
2016-04-25 05:48:03,0.29,2.99,0.00,18.17,23.05,27.02,15.09,51.10,1025.84,2054.00,2503.08,2425.27,2723.80,600.01,611.43,32.24,0000 0000 0000 0000 000000
2016-04-25 05:53:04,0.22,3.00,0.00,18.13,23.07,26.84,14.98,50.73,1025.88,2054.00,2500.50,2422.49,2720.76,599.89,611.38,32.29,0000 0000 0000 0000 000000
2016-04-25 05:58:05,0.15,3.01,0.00,18.12,23.08,26.82,15.05,50.77,1025.92,2053.97,2498.73,2420.76,2718.83,599.97,611.56,32.34,0000 0000 0000 0000 000000
2016-04-25 06:03:07,0.10,3.01,0.00,18.14,23.09,26.93,15.02,50.61,1026.08,2053.97,2497.14,2419.43,2717.27,599.86,611.61,32.39,0000 0000 0000 0000 000000
2016-04-25 06:08:08,0.12,3.02,0.00,18.16,23.10,26.93,15.04,50.63,1026.29,2053.97,2495.55,2418.10,2715.67,600.17,611.87,32.44,0000 0000 0000 0000 000000
2016-04-25 06:13:09,0.15,3.03,0.00,18.18,23.12,26.90,15.04,50.83,1026.38,2053.96,2493.89,2416.56,2713.83,599.86,611.54,32.49,0000 0000 0000 0000 000000
2016-04-25 06:18:10,0.17,3.04,0.00,18.22,23.12,26.88,15.11,50.94,1026.39,2053.96,2491.88,2414.61,2711.60,600.23,611.90,32.54,0000 0000 0000 0000 000000
2016-04-25 06:23:11,0.12,3.04,0.00,18.25,23.13,26.89,15.01,50.52,1026.59,2053.94,2490.22,2413.14,2709.86,599.67,611.50,32.59,0000 0000 0000 0000 000000
2016-04-25 06:28:12,0.14,3.05,0.00,18.30,23.14,26.92,15.07,50.48,1026.59,2053.92,2488.49,2411.62,2708.07,600.14,611.70,32.64,0000 0000 0000 0000 000000
2016-04-25 06:33:14,0.09,3.06,0.00,18.34,23.16,26.91,15.00,50.87,1026.47,2053.72,2486.88,2410.28,2706.47,599.74,611.16,32.69,0000 0000 0000 0000 000000
2016-04-25 06:38:15,0.08,3.06,0.00,18.37,23.17,26.92,15.01,50.83,1026.39,2053.42,2485.34,2408.88,2704.90,600.21,611.47,32.74,0000 0000 0000 0000 000000
2016-04-25 06:43:16,0.14,3.07,0.00,18.37,23.19,26.90,14.97,51.00,1026.38,2053.14,2483.57,2407.19,2702.89,600.16,611.41,32.79,0000 0000 0000 0000 000000
2016-04-25 06:48:17,0.13,3.07,0.00,18.38,23.21,26.92,15.04,50.64,1026.40,2053.09,2481.89,2405.64,2701.22,599.98,611.28,32.84,0000 0000 0000 0000 000000
2016-04-25 06:53:19,0.14,3.08,0.00,18.41,23.22,26.94,15.09,50.67,1026.46,2053.03,2480.20,2403.95,2699.30,600.06,611.37,32.89,0000 0000 0000 0000 000000
2016-04-25 06:58:20,0.13,3.09,0.00,18.43,23.24,26.96,15.10,50.92,1026.49,2053.02,2478.40,2402.40,2697.44,600.02,611.28,32.94,0000 0000 0000 0000 000000
2016-04-25 07:03:21,0.10,3.09,0.00,18.44,23.26,26.98,14.98,51.04,1026.68,2053.00,2476.91,2401.24,2696.07,600.30,611.65,32.99,0000 0000 0000 0000 000000
2016-04-25 07:08:23,0.11,3.10,0.00,18.46,23.28,27.00,14.97,50.88,1026.84,2053.00,2475.51,2400.05,2694.68,600.14,611.55,33.04,0000 0000 0000 0000 000000
2016-04-25 07:13:24,0.21,3.11,0.00,18.47,23.29,27.04,14.95,51.02,1026.84,2053.00,2473.58,2397.95,2692.30,600.01,611.37,33.09,0000 0000 0000 0000 000000
2016-04-25 07:18:25,0.12,3.12,0.00,18.48,23.31,27.06,15.04,50.58,1026.87,2052.99,2471.88,2396.43,2690.59,600.37,611.80,33.15,0000 0000 0000 0000 000000
2016-04-25 07:23:27,0.09,3.12,0.00,18.52,23.33,27.10,15.03,50.48,1026.91,2052.98,2470.58,2395.37,2689.31,600.22,611.56,33.20,0000 0000 0000 0000 000000
2016-04-25 07:28:28,0.09,3.13,0.00,18.54,23.34,27.12,15.07,50.48,1026.90,2052.98,2469.41,2394.47,2688.11,600.35,611.64,33.25,0000 0000 0000 0000 000000
2016-04-25 07:33:29,0.09,3.13,0.00,18.55,23.37,27.11,15.02,50.68,1026.90,2052.98,2468.16,2393.33,2686.94,599.86,611.15,33.30,0000 0000 0000 0000 000000
2016-04-25 07:38:31,0.10,3.14,0.00,18.59,23.37,27.12,15.02,50.45,1027.08,2052.98,2466.82,2392.24,2685.75,600.09,611.38,33.35,0000 0000 0000 0000 000000
2016-04-25 07:43:32,0.08,3.14,0.00,18.63,23.39,27.16,15.06,50.55,1027.16,2052.90,2465.62,2391.30,2684.53,599.98,611.07,33.40,0000 0000 0000 0000 000000
2016-04-25 07:48:33,0.06,3.14,0.00,18.64,23.42,27.17,15.03,50.58,1026.97,2052.66,2464.44,2390.30,2683.41,600.03,611.13,33.45,0000 0000 0000 0000 000000
2016-04-25 07:53:34,0.05,3.15,0.00,18.65,23.44,27.17,15.03,50.63,1026.88,2052.32,2463.21,2389.30,2682.14,599.87,610.94,33.50,0000 0000 0000 0000 000000
2016-04-25 07:58:36,0.10,3.15,0.00,18.67,23.46,27.19,15.00,50.65,1026.88,2052.09,2461.83,2388.34,2680.85,599.80,610.80,33.55,0000 0000 0000 0000 000000
2016-04-25 08:03:37,0.07,3.16,0.00,18.70,23.48,27.22,14.99,50.54,1026.90,2052.04,2460.82,2387.31,2679.87,600.20,611.21,33.60,0000 0000 0000 0000 000000
2016-04-25 08:08:38,0.09,3.16,0.00,18.73,23.50,27.26,14.97,50.57,1027.14,2052.01,2459.75,2386.41,2678.79,599.87,610.87,33.65,0000 0000 0000 0000 000000
2016-04-25 08:13:39,0.10,3.16,0.00,18.75,23.52,27.28,14.96,50.50,1027.24,2052.00,2458.57,2385.46,2677.54,600.01,611.15,33.70,0000 0000 0000 0000 000000
2016-04-25 08:18:40,0.08,3.17,0.00,18.78,23.54,27.31,15.00,50.61,1027.01,2052.00,2457.47,2384.46,2676.45,600.11,611.02,33.75,0000 0000 0000 0000 000000
2016-04-25 08:23:41,0.08,3.17,0.00,18.81,23.56,27.35,14.98,50.48,1026.95,2052.00,2456.35,2383.68,2675.46,599.89,610.64,33.80,0000 0000 0000 0000 000000
2016-04-25 08:28:43,0.06,3.18,0.00,18.83,23.58,27.37,14.98,50.43,1027.20,2051.99,2455.55,2382.91,2674.59,599.99,610.82,33.85,0000 0000 0000 0000 000000
2016-04-25 08:33:44,0.08,3.18,0.00,18.87,23.61,27.41,15.03,50.49,1027.29,2051.98,2454.42,2382.07,2673.67,600.20,611.01,33.90,0000 0000 0000 0000 000000
2016-04-25 08:38:45,0.07,3.18,0.00,18.90,23.62,27.39,15.02,50.37,1027.27,2051.95,2453.48,2381.30,2672.73,599.96,610.61,33.95,0000 0000 0000 0000 000000
2016-04-25 08:43:47,0.07,3.19,0.00,18.94,23.65,27.48,15.00,50.59,1027.31,2051.94,2452.41,2380.61,2671.78,600.00,610.71,34.01,0000 0000 0000 0000 000000
2016-04-25 08:48:48,0.07,3.19,0.00,18.99,23.67,27.48,15.02,50.50,1027.35,2051.73,2451.26,2379.70,2670.64,600.12,610.74,34.06,0000 0000 0000 0000 000000
2016-04-25 08:53:49,0.01,3.19,0.00,19.01,23.70,27.54,15.00,50.42,1027.36,2051.37,2450.19,2378.87,2669.68,599.82,610.35,34.11,0000 0000 0000 0000 000000
2016-04-25 08:58:50,0.07,3.20,0.00,19.04,23.72,27.58,14.95,50.40,1027.36,2051.07,2449.03,2377.87,2668.54,600.03,610.32,34.16,0000 0000 0000 0000 000000
2016-04-25 09:03:52,0.07,3.20,0.00,19.07,23.74,27.60,14.99,50.21,1027.37,2051.02,2447.92,2377.04,2667.46,600.11,610.36,34.21,0000 0000 0000 0000 000000
2016-04-25 09:08:53,0.09,3.21,0.00,19.10,23.77,27.62,14.96,50.20,1027.37,2051.02,2446.75,2376.19,2666.47,600.11,610.49,34.26,0000 0000 0000 0000 000000
2016-04-25 09:13:54,0.08,3.21,0.00,19.13,23.80,27.67,14.98,50.30,1027.45,2051.00,2445.65,2375.27,2665.32,599.62,609.97,34.31,0000 0000 0000 0000 000000
2016-04-25 09:18:55,0.08,3.21,0.00,19.14,23.82,27.70,14.97,50.23,1027.67,2051.00,2444.49,2374.44,2664.34,600.07,610.55,34.36,0000 0000 0000 0000 000000
2016-04-25 09:23:56,0.06,3.22,0.00,19.17,23.85,27.73,14.94,50.15,1027.82,2050.99,2443.58,2373.64,2663.33,599.80,610.30,34.41,0000 0000 0000 0000 000000
2016-04-25 09:28:58,0.07,3.22,0.00,19.19,23.88,27.82,14.97,49.82,1027.85,2050.98,2442.49,2372.82,2662.32,600.03,610.51,34.46,0000 0000 0000 0000 000000
2016-04-25 09:33:59,0.09,3.23,0.00,19.23,23.91,27.76,14.95,49.92,1027.85,2050.92,2441.24,2371.79,2661.18,599.79,610.09,34.51,0000 0000 0000 0000 000000
2016-04-25 09:39:00,0.06,3.23,0.00,19.25,23.93,27.78,14.95,50.10,1027.85,2050.84,2440.02,2370.91,2660.06,599.67,609.93,34.56,0000 0000 0000 0000 000000
2016-04-25 09:44:01,0.05,3.23,0.00,19.29,23.96,27.84,14.96,50.04,1027.85,2050.45,2438.85,2370.01,2658.98,599.81,610.02,34.61,0000 0000 0000 0000 000000
2016-04-25 09:49:03,0.06,3.24,0.00,19.31,23.99,27.81,14.97,50.13,1027.85,2050.13,2437.64,2369.12,2657.90,600.03,610.30,34.66,0000 0000 0000 0000 000000
2016-04-25 09:54:04,0.08,3.24,0.00,19.34,24.02,27.89,14.90,50.19,1027.86,2050.03,2436.56,2368.23,2656.83,599.83,609.99,34.71,0000 0000 0000 0000 000000
2016-04-25 09:59:05,0.10,3.25,0.00,19.36,24.04,27.90,14.95,50.16,1027.86,2050.00,2435.13,2367.25,2655.69,600.07,610.18,34.76,0000 0000 0000 0000 000000
2016-04-25 10:04:07,0.09,3.25,0.00,19.38,24.07,27.94,14.93,50.07,1027.92,2050.00,2433.85,2366.52,2654.42,599.81,609.85,34.81,0000 0000 0000 0000 000000
2016-04-25 10:09:08,0.07,3.25,0.00,19.42,24.10,27.97,14.98,50.12,1028.27,2050.00,2432.87,2365.76,2653.41,600.20,610.52,34.86,0000 0000 0000 0000 000000
2016-04-25 10:14:09,0.09,3.26,0.00,19.45,24.13,27.97,14.98,50.17,1028.33,2049.98,2431.66,2364.84,2652.40,600.10,610.40,34.91,0000 0000 0000 0000 000000
2016-04-25 10:19:11,0.08,3.26,0.00,19.49,24.16,27.97,14.96,49.99,1028.33,2049.97,2430.42,2364.00,2651.27,599.94,610.06,34.96,0000 0000 0000 0000 000000
2016-04-25 10:24:12,0.08,3.27,0.00,19.52,24.18,28.00,14.94,50.11,1028.33,2049.95,2429.29,2363.11,2650.20,600.17,610.15,35.02,0000 0000 0000 0000 000000
2016-04-25 10:29:14,0.06,3.27,0.00,19.54,24.21,28.05,14.96,50.17,1028.35,2049.85,2428.45,2362.35,2649.32,600.18,610.25,35.07,0000 0000 0000 0000 000000
2016-04-25 10:34:15,0.02,3.27,0.00,19.58,24.24,28.10,14.92,50.25,1028.35,2049.32,2427.37,2361.53,2648.33,599.63,609.59,35.12,0000 0000 0000 0000 000000
2016-04-25 10:39:17,0.07,3.28,0.00,19.60,24.27,28.17,14.97,50.20,1028.43,2049.09,2426.17,2360.65,2647.32,599.93,609.87,35.17,0000 0000 0000 0000 000000
2016-04-25 10:44:18,0.06,3.28,0.00,19.63,24.30,28.20,14.99,50.28,1028.75,2049.02,2425.10,2359.95,2646.25,600.18,610.26,35.22,0000 0000 0000 0000 000000
2016-04-25 10:49:19,0.08,3.28,0.00,19.68,24.33,28.23,14.96,50.23,1028.82,2049.01,2424.23,2359.09,2645.44,599.84,609.91,35.27,0000 0000 0000 0000 000000
2016-04-25 10:54:20,0.08,3.29,0.00,19.70,24.36,28.23,15.02,50.32,1028.82,2049.00,2423.26,2358.22,2644.45,600.16,610.27,35.32,0000 0000 0000 0000 000000
2016-04-25 10:59:21,0.09,3.29,0.00,19.73,24.39,28.23,15.01,50.17,1028.82,2048.99,2422.06,2357.37,2643.40,600.10,609.92,35.37,0000 0000 0000 0000 000000
2016-04-25 11:04:22,0.10,3.30,0.00,19.75,24.41,28.26,14.94,50.09,1028.85,2048.98,2420.65,2356.45,2642.23,599.75,609.63,35.42,0000 0000 0000 0000 000000
2016-04-25 11:09:24,0.08,3.30,0.00,19.79,24.45,28.29,14.87,50.13,1028.83,2048.97,2419.49,2355.62,2641.15,599.82,609.58,35.47,0000 0000 0000 0000 000000
2016-04-25 11:14:25,0.05,3.30,0.00,19.83,24.48,28.33,14.83,50.04,1028.85,2048.85,2418.62,2354.89,2640.21,599.79,609.46,35.52,0000 0000 0000 0000 000000
2016-04-25 11:19:26,0.03,3.31,0.00,19.87,24.51,28.35,14.93,50.25,1028.85,2048.45,2417.52,2353.98,2639.29,599.90,609.47,35.57,0000 0000 0000 0000 000000
2016-04-25 11:24:27,0.05,3.31,0.00,19.89,24.54,28.37,14.96,50.13,1028.86,2048.10,2416.42,2353.10,2638.19,600.18,609.77,35.62,0000 0000 0000 0000 000000
2016-04-25 11:29:29,0.09,3.31,0.00,19.94,24.58,28.41,15.01,50.07,1028.94,2048.03,2415.13,2352.18,2637.09,600.33,609.90,35.67,0000 0000 0000 0000 000000
2016-04-25 11:34:30,0.08,3.32,0.00,19.98,24.61,28.44,14.91,50.06,1028.96,2048.00,2413.95,2351.26,2636.09,600.05,609.52,35.72,0000 0000 0000 0000 000000
2016-04-25 11:39:31,0.09,3.32,0.00,20.03,24.64,28.46,15.01,50.17,1028.84,2047.99,2412.83,2350.42,2635.07,600.06,609.42,35.77,0000 0000 0000 0000 000000
2016-04-25 11:44:32,0.08,3.33,0.00,20.07,24.68,28.55,14.94,50.11,1028.91,2047.97,2411.69,2349.56,2634.01,599.90,609.18,35.82,0000 0000 0000 0000 000000
2016-04-25 11:49:34,0.07,3.33,0.00,20.09,24.71,28.56,14.96,50.08,1029.00,2047.93,2410.67,2348.76,2632.99,600.11,609.39,35.88,0000 0000 0000 0000 000000
2016-04-25 11:54:35,0.02,3.33,0.00,20.11,24.75,28.59,14.93,49.94,1029.08,2047.56,2409.58,2347.91,2632.00,600.33,609.62,35.93,0000 0000 0000 0000 000000
2016-04-25 11:59:36,0.04,3.34,0.00,20.17,24.78,28.61,14.91,50.08,1029.08,2047.13,2408.58,2347.06,2631.04,599.86,608.97,35.98,0000 0000 0000 0000 000000
2016-04-25 12:04:38,0.08,3.34,0.00,20.20,24.81,28.69,15.01,50.17,1028.85,2047.03,2407.55,2346.21,2630.07,600.46,609.42,36.03,0000 0000 0000 0000 000000
2016-04-25 12:09:39,0.08,3.34,0.00,20.23,24.85,28.72,14.95,50.22,1028.83,2047.00,2406.58,2345.48,2629.13,600.30,609.21,36.08,0000 0000 0000 0000 000000
2016-04-25 12:14:41,0.06,3.35,0.00,20.27,24.88,28.76,14.97,50.32,1028.83,2047.00,2405.69,2344.78,2628.28,600.16,609.01,36.13,0000 0000 0000 0000 000000
2016-04-25 12:19:42,0.08,3.35,0.00,20.31,24.92,28.76,14.98,50.25,1028.83,2047.00,2404.52,2343.93,2627.30,600.37,609.11,36.18,0000 0000 0000 0000 000000
2016-04-25 12:24:43,0.08,3.35,0.00,20.33,24.95,28.77,14.86,50.08,1028.83,2047.00,2403.58,2343.07,2626.35,599.65,608.30,36.23,0000 0000 0000 0000 000000
2016-04-25 12:29:44,0.09,3.36,0.00,20.36,24.98,28.84,14.91,50.07,1028.83,2047.00,2402.41,2342.27,2625.32,599.97,608.62,36.28,0000 0000 0000 0000 000000
2016-04-25 12:34:46,0.08,3.36,0.00,20.40,25.01,28.85,14.97,50.08,1028.83,2046.99,2401.30,2341.48,2624.31,600.43,608.95,36.33,0000 0000 0000 0000 000000
2016-04-25 12:39:47,0.09,3.37,0.00,20.45,25.04,28.90,14.98,50.27,1028.82,2046.95,2399.90,2340.54,2623.10,600.18,608.60,36.38,0000 0000 0000 0000 000000
2016-04-25 12:44:48,0.03,3.37,0.00,20.46,25.08,28.95,14.94,50.12,1028.81,2046.58,2398.81,2339.72,2622.29,600.17,608.59,36.43,0000 0000 0000 0000 000000
2016-04-25 12:49:50,0.04,3.37,0.00,20.49,25.11,28.96,14.93,50.09,1028.72,2046.17,2397.73,2338.87,2621.25,600.27,608.40,36.48,0000 0000 0000 0000 000000
2016-04-25 12:54:51,0.07,3.38,0.00,20.52,25.14,28.98,14.88,50.17,1028.46,2046.05,2396.56,2338.04,2620.21,600.14,608.06,36.53,0000 0000 0000 0000 000000